Home > Weather > Meschede > Past weeks

Flag for Germany Past Weather in Meschede, North Rhine-Westphalia, Germany — Yesterday and Last 2 Weeks

Now
50 °F

Broken clouds.


Feels Like: 48 °F
Forecast: 42 / 66 °F
Wind: 5 mph from Northwest

Location: Paderborn / Lippstadt

Current Time: May 24, 2016 at 9:37:16 PM

Latest Report: May 24, 2016 at 8:50 PM


Visibility: N/A

Pressure: 29.98 "Hg

Humidity: 100%

Dew Point: 50 °F

Location of MeschedeLocation

Past Weather in Meschede — Graph

°F

Meschede Temperature Yesterday

Maximum temperature yesterday: 63 °F (at 2:20 PM)
Minimum temperature yesterday: 54 °F (at 11:20 PM)
Average temperature yesterday: 58 °F

High & Low Weather Summary for the Past Weeks

 TemperatureHumidityPressure
High79 °F (May 22, 1:50 PM)100% (May 13, 3:20 AM)30.09 "Hg (May 13, 3:20 AM)
Low37 °F (May 16, 4:20 AM)27% (May 13, 3:50 PM)29.50 "Hg (May 12, 5:50 PM)
Average57 °F70%29.87 "Hg
* Reported May 9 8:20 PM — May 24 8:20 PM, Meschede, Weather by CustomWeather, © 2016

Note: Actual official high and low records may vary slightly from our data, if they occured in-between our weather recording intervals... More about our weather records

Advertising

Meschede Weather History for the Previous 24 Hours

Scroll right to see more
 ConditionsComfort  
Time TempWeatherWind HumidityBarometerVisibility
8:20 PM
Tue, May 24
52 °FBroken clouds.5 mph94%29.98 "HgN/A
7:50 PM50 °FPartly sunny.6 mph100%29.98 "HgN/A
7:20 PM52 °FPartly sunny.6 mph94%29.98 "HgN/A
6:50 PM52 °FPartly sunny.5 mph100%29.98 "HgN/A
6:20 PM52 °FPartly sunny.7 mph100%29.98 "HgN/A
5:50 PM52 °FPartly sunny.6 mph100%29.98 "HgN/A
5:20 PM52 °FPartly sunny.7 mph100%29.98 "HgN/A
4:50 PM52 °FBroken clouds.7 mph100%29.98 "HgN/A
4:20 PM52 °FBroken clouds.6 mph100%29.98 "Hg4 mi
3:50 PM52 °FBroken clouds.7 mph100%29.98 "Hg4 mi
3:20 PM50 °FBroken clouds.7 mph100%29.98 "Hg4 mi
2:50 PM50 °FBroken clouds.7 mph100%29.98 "Hg4 mi
2:20 PM50 °FDrizzle. Broken clouds.10 mph100%29.98 "Hg4 mi
1:50 PM50 °FDrizzle. Broken clouds.8 mph100%29.98 "Hg4 mi
1:20 PM50 °FDrizzle. Broken clouds.9 mph94%29.98 "Hg5 mi
12:50 PM50 °FDrizzle. Broken clouds.8 mph100%29.98 "Hg5 mi
12:20 PM48 °FDrizzle. Partly sunny.9 mph100%29.98 "Hg5 mi
11:50 AM48 °FDrizzle. Partly sunny.8 mph100%29.98 "Hg5 mi
11:20 AM48 °FDrizzle. Low clouds.8 mph100%29.98 "Hg5 mi
10:50 AM48 °FDrizzle. Low clouds.8 mph100%29.98 "Hg4 mi
10:20 AM48 °FDrizzle. Fog.9 mph100%29.98 "Hg3 mi
9:50 AM48 °FFog.8 mph100%29.98 "Hg2 mi
9:20 AM48 °FDrizzle. Fog.9 mph100%29.98 "Hg2 mi
8:50 AM48 °FDrizzle. Fog.9 mph100%29.95 "Hg2 mi
8:20 AM48 °FDrizzle. Fog.9 mph100%29.95 "Hg2 mi
7:50 AM48 °FDrizzle. Fog.8 mph100%29.95 "Hg1 mi
7:20 AM48 °FDrizzle. Fog.9 mph100%29.95 "Hg1 mi
6:50 AM48 °FDrizzle. Fog.8 mph100%29.95 "Hg1 mi
6:20 AM48 °FDrizzle. Fog.7 mph100%29.95 "Hg1 mi
5:50 AM50 °FFog.7 mph94%29.95 "Hg1 mi
5:20 AM50 °FPassing clouds.7 mph100%29.92 "Hg4 mi
4:50 AM50 °FPassing clouds.7 mph100%29.92 "HgN/A
4:20 AM50 °FLight rain. Fog.9 mph100%29.92 "Hg2 mi
3:50 AM50 °FLight rain. Fog.8 mph100%29.92 "Hg2 mi
3:20 AM50 °FLight rain. Fog.8 mph100%29.92 "Hg1 mi
2:50 AM50 °FLight rain. Fog.7 mph100%29.92 "Hg2 mi
2:20 AM50 °FLight rain. Fog.8 mph100%29.92 "Hg2 mi
1:50 AM52 °FPassing clouds.8 mph100%29.92 "Hg5 mi
1:20 AM52 °FPassing clouds.7 mph100%29.92 "Hg5 mi
12:50 AM52 °FPassing clouds.8 mph100%29.92 "Hg5 mi
12:20 AM54 °FPassing clouds.7 mph100%29.92 "Hg6 mi
11:50 PM
Mon, May 23
54 °FPassing clouds.8 mph100%29.89 "HgN/A
11:20 PM54 °FLight rain. Passing clouds.8 mph100%29.89 "Hg4 mi
10:50 PM55 °FPassing clouds.6 mph100%29.89 "HgN/A
10:20 PM55 °FPartly sunny.6 mph100%29.89 "HgN/A
9:50 PM55 °FScattered clouds.5 mph100%29.89 "HgN/A
9:20 PM55 °FScattered clouds.6 mph100%29.89 "HgN/A
Weather by CustomWeather, © 2016

See weather overviewHow to use our weather pages